Date String (YYYY-MM-DD hh:mm:ss) UTC,Instrument flags,absolute air pressure of the measurement (hPa),sample flow rate (lpm),inlet stack bypass flow (lpm),air temperature of the measurement (°C),ambient temperature measured by the external sensor (°C),aerosol sample conditioner tube jacket temperature (°C),OPC LED temperature (°C),internal box temperature (°C),relative humidity of the measurement (%),span deviation,mass concentration of particles derived from Lorenz-Mie calculation of OPC scattering (μg/m³),mass concentration of particles derived from Lorenz-Mie calculation of OPC scattering (μg/m³),mass concentration of particles derived from Lorenz-Mie calculation of OPC scattering (μg/m³)
DateTimeUTC,F1_M11,P_M11,Q1_M11,Q2_M11,T1_M11,T2_M11,T3_M11,T4_M11,T5_M11,U1_M11,ZSPAN_M11,X2_M11,X0_M11,X1_M11
2023-09-27 17:00:00,SystemResetWarning,0832.0,4.99,000.00,028.6,026.5,000.0,037.0,030.4,18.6,0000.0,0006.37,0018.94,0004.90
2023-09-27 17:01:00,SystemResetWarning,0832.0,5.00,000.00,028.5,024.9,000.0,036.9,030.2,18.4,0000.0,0006.36,0018.86,0004.88
2023-09-27 17:02:00,SystemResetWarning,0831.9,5.01,000.00,028.5,024.7,000.0,036.8,030.1,18.5,0000.9,0006.32,0017.86,0004.87
2023-09-27 17:03:00,SystemResetWarning,0832.0,5.00,000.00,028.4,025.0,000.0,036.8,030.0,18.8,0002.5,0006.32,0017.09,0004.87
2023-09-27 17:04:00,SystemResetWarning,0831.9,4.98,000.00,028.4,025.4,000.0,036.9,029.9,19.0,0000.0,0006.28,0016.16,0004.86
2023-09-27 17:05:00,SystemResetWarning,0832.0,5.00,000.00,028.3,025.8,000.0,036.9,030.0,19.0,0000.0,0006.24,0015.36,0004.84
2023-09-27 17:06:00,SystemResetWarning,0832.0,5.00,000.00,028.3,026.1,000.0,036.9,030.0,18.1,0000.0,0006.19,0015.83,0004.83
2023-09-27 17:07:00,SystemResetWarning,0832.0,5.01,000.00,028.4,026.4,000.0,036.9,030.1,18.3,0000.0,0006.19,0016.51,0004.82
2023-09-27 17:08:00,SystemResetWarning,0832.0,5.01,000.00,028.4,026.7,000.0,036.9,030.1,18.6,0000.0,0006.28,0016.71,0004.82
2023-09-27 17:09:00,SystemResetWarning,0832.0,5.00,000.00,028.4,026.9,000.0,036.9,030.2,18.6,0000.0,0006.34,0017.14,0004.82
2023-09-27 17:10:00,SystemResetWarning,0832.0,5.00,000.00,028.4,027.1,000.0,036.9,030.3,18.8,0000.2,0006.42,0017.31,0004.81
2023-09-27 17:11:00,SystemResetWarning,0832.0,5.00,000.00,028.5,027.3,000.0,036.9,030.3,19.2,0000.8,0006.46,0018.92,0004.82
2023-09-27 17:12:00,SystemResetWarning,0831.9,5.00,000.00,028.5,027.4,000.0,036.9,030.4,19.1,0000.6,0006.47,0019.86,0004.83
2023-09-27 17:13:00,SystemResetWarning,0831.9,4.99,000.00,028.6,027.4,000.0,037.0,030.4,19.0,0000.4,0006.49,0020.39,0004.86
2023-09-27 17:14:00,SystemResetWarning,0831.9,4.99,000.00,028.6,026.2,000.0,036.9,030.4,19.4,0000.4,0006.44,0020.89,0004.86
2023-09-27 17:15:00,SystemResetWarning,0831.9,5.00,000.00,028.5,024.8,000.0,036.8,030.2,19.3,0001.8,0006.47,0021.73,0004.87
2023-09-27 17:16:00,SystemResetWarning,0831.9,5.02,000.00,028.5,024.7,000.0,036.8,030.1,19.5,0002.2,0006.43,0022.75,0004.88
2023-09-27 17:17:00,SystemResetWarning,0831.9,5.01,000.00,028.4,025.0,000.0,036.8,030.0,19.6,0002.4,0006.43,0021.73,0004.90
2023-09-27 17:18:00,SystemResetWarning,0831.9,5.00,000.00,028.4,025.4,000.0,036.8,029.9,19.8,0002.6,0006.41,0020.41,0004.92
2023-09-27 17:19:00,SystemResetWarning,0831.9,5.00,000.00,028.3,025.8,000.0,036.8,030.0,20.0,0002.6,0006.34,0020.41,0004.93
2023-09-27 17:20:00,SystemResetWarning,0831.9,5.00,000.00,028.3,026.1,000.0,036.8,030.1,19.6,0002.8,0006.39,0021.03,0004.96
2023-09-27 17:21:00,SystemResetWarning,0831.9,5.01,000.00,028.4,026.5,000.0,036.9,030.1,18.8,0003.1,0006.42,0021.48,0004.99
2023-09-27 17:22:00,SystemResetWarning,0831.9,4.99,000.00,028.4,026.7,000.0,036.9,030.2,17.3,0003.6,0006.46,0020.72,0005.01
2023-09-27 17:23:00,SystemResetWarning,0831.9,4.99,000.00,028.4,026.9,000.0,036.9,030.2,17.7,0004.0,0006.48,0019.26,0005.03
2023-09-27 17:24:00,SystemResetWarning,0831.9,5.00,000.00,028.5,027.1,000.0,036.9,030.3,18.6,0003.5,0006.46,0019.42,0005.04
2023-09-27 17:25:00,SystemResetWarning,0831.9,5.00,000.00,028.5,027.3,000.0,036.9,030.4,17.4,0003.3,0006.50,0020.68,0005.07
2023-09-27 17:26:00,SystemResetWarning,0832.0,4.99,000.00,028.5,026.6,000.0,036.9,030.3,16.0,0000.0,0006.52,0020.99,0005.10
2023-09-27 17:27:00,SystemResetWarning,0831.9,5.00,000.00,028.5,025.0,000.0,036.8,030.1,16.2,0000.0,0006.60,0021.13,0005.14
2023-09-27 17:28:00,SystemResetWarning,0831.9,5.01,000.00,028.4,024.7,000.0,036.8,030.0,16.5,0000.0,0006.65,0021.17,0005.19
2023-09-27 17:29:00,SystemResetWarning,0831.8,5.01,000.00,028.3,025.0,000.0,036.8,029.9,17.1,0000.0,0006.70,0022.05,0005.22
2023-09-27 17:30:00,SystemResetWarning,0831.8,5.00,000.00,028.3,025.3,000.0,036.8,029.9,18.0,0000.0,0006.74,0022.05,0005.25
2023-09-27 17:31:00,SystemResetWarning,0831.8,5.00,000.00,028.3,025.7,000.0,036.8,029.9,18.4,0000.0,0006.73,0021.59,0005.27
2023-09-27 17:32:00,SystemResetWarning,0831.8,5.00,000.00,028.3,026.1,000.0,036.8,030.0,18.8,0000.0,0006.68,0020.59,0005.30
2023-09-27 17:33:00,SystemResetWarning,0831.8,5.01,000.00,028.3,026.4,000.0,036.8,030.0,19.1,0000.0,0006.71,0020.12,0005.32
2023-09-27 17:34:00,SystemResetWarning,0832.2,5.00,000.00,028.3,026.7,000.0,036.8,030.1,19.4,0000.0,0006.75,0020.73,0005.34
2023-09-27 17:35:00,SystemResetWarning,0832.2,5.00,000.00,028.4,026.9,000.0,036.8,030.2,19.9,0000.0,0006.87,0020.47,0005.36
2023-09-27 17:36:00,SystemResetWarning,0832.3,5.00,000.00,028.4,027.1,000.0,036.8,030.2,20.1,0000.0,0006.94,0018.93,0005.37
2023-09-27 17:37:00,SystemResetWarning,0832.3,4.99,000.00,028.4,027.3,000.0,036.9,030.3,20.2,0000.0,0006.96,0018.23,0005.39
2023-09-27 17:38:00,SystemResetWarning,0832.3,5.00,000.00,028.5,027.4,000.0,036.9,030.4,20.7,0000.4,0006.92,0016.91,0005.40
2023-09-27 17:39:00,SystemResetWarning,0832.1,4.99,000.00,028.5,026.3,000.0,036.8,030.3,20.2,0000.3,0006.89,0016.87,0005.39
2023-09-27 17:40:00,SystemResetWarning,0831.7,5.00,000.00,028.4,024.8,000.0,036.8,030.1,20.4,0000.8,0006.84,0016.38,0005.39
2023-09-27 17:41:00,SystemResetWarning,0831.7,5.01,000.00,028.4,024.7,000.0,036.7,030.0,21.2,0000.0,0006.83,0016.09,0005.41
2023-09-27 17:42:00,SystemResetWarning,0831.7,5.00,000.00,028.3,025.0,000.0,036.7,029.9,21.3,0000.2,0006.86,0015.96,0005.44
2023-09-27 17:43:00,SystemResetWarning,0831.7,5.00,000.00,028.3,025.4,000.0,036.8,029.9,21.1,0003.0,0006.85,0015.70,0005.45
2023-09-27 17:44:00,SystemResetWarning,0831.7,5.00,000.00,028.3,025.8,000.0,036.8,030.0,21.5,0002.8,0006.84,0016.49,0005.46
2023-09-27 17:45:00,SystemResetWarning,0831.7,5.01,000.00,028.3,026.1,000.0,036.8,030.0,21.6,0003.1,0006.82,0016.62,0005.46
2023-09-27 17:46:00,SystemResetWarning,0831.7,4.99,000.00,028.3,026.5,000.0,036.8,030.1,22.0,0003.2,0006.75,0016.51,0005.45
2023-09-27 17:47:00,SystemResetWarning,0831.7,5.00,000.00,028.3,026.7,000.0,036.8,030.1,22.0,0002.9,0006.68,0016.53,0005.45
2023-09-27 17:48:00,SystemResetWarning,0831.7,5.00,000.00,028.4,027.0,000.0,036.8,030.2,22.2,0002.4,0006.70,0015.99,0005.47
2023-09-27 17:49:00,SystemResetWarning,0831.6,5.00,000.00,028.4,027.2,000.0,036.8,030.3,22.3,0002.0,0006.77,0016.10,0005.47
2023-09-27 17:50:00,SystemResetWarning,0831.6,4.99,000.00,028.5,027.1,000.0,036.8,030.3,22.3,0001.1,0006.79,0016.07,0005.48
2023-09-27 17:51:00,SystemResetWarning,0831.6,4.98,000.00,028.4,025.8,000.0,036.8,030.2,22.4,0002.0,0006.85,0016.74,0005.49
2023-09-27 17:52:00,SystemResetWarning,0831.5,5.01,000.00,028.4,024.6,000.0,036.7,030.0,22.4,0001.5,0006.89,0016.95,0005.49
2023-09-27 17:53:00,SystemResetWarning,0831.5,5.01,000.00,028.3,024.8,000.0,036.7,029.9,22.7,0001.2,0006.87,0017.23,0005.47
2023-09-27 17:54:00,SystemResetWarning,0831.5,5.00,000.00,028.2,025.1,000.0,036.7,029.8,22.9,0001.6,0006.96,0018.22,0005.47
2023-09-27 17:55:00,SystemResetWarning,0831.5,5.00,000.00,028.2,025.5,000.0,036.7,029.9,22.6,0000.4,0006.94,0017.36,0005.47
2023-09-27 17:56:00,SystemResetWarning,0831.5,5.00,000.00,028.2,025.9,000.0,036.7,029.9,22.7,0000.0,0006.98,0018.35,0005.48
2023-09-27 17:57:00,SystemResetWarning,0831.5,5.00,000.00,028.2,026.2,000.0,036.7,030.0,23.0,0000.0,0006.98,0018.77,0005.53
2023-09-27 17:58:00,SystemResetWarning,0831.5,5.00,000.00,028.3,026.5,000.0,036.8,030.1,22.8,0000.0,0006.99,0018.69,0005.57
2023-09-27 17:59:00,SystemResetWarning,0831.5,4.99,000.00,028.3,026.8,000.0,036.8,030.1,22.6,0000.0,0006.99,0018.54,0005.59
